Starlink 35096

operational
NORAD ID: 65479 Int'l Des: 2025-195 Owner: SPXS Country: US Constellation: starlink
LEOCIRCULAR

关于 Starlink 35096

正在加载描述...

实时位置

正在加载3D地球...

即将过境

高度历史

Altitude vs Time

uPlot chart will show altitude changes over time

两行轨道根数

1 65479U 25195X 25294.43956421 .00086585 00000-0 21493-2 0 9992
2 65479 53.1606 186.4168 0001474 78.7668 281.3503 15.39630619 8638
Epoch: Oct 21, 2025 • Age: 13 hours

当前状态

高度 452.0 km
速度 7.65 km/s
星下点 50.88°N, 85.11°W
发射日期 Sep 3, 2025
运行时间 0.1 years
类型 internet

技术详情

分类 Payload
质量 575.00 kg
干质量 530.00 kg
总质量 575.00 kg
长度 0.30 m
直径 4.10 m
跨度 29.00 m
形状 Box + pan
制造商 SPXS
平台类型 Starlink V2MO
阶段状态 In Orbit
所有者/国家 SPXS/US

大型星座

Loading constellations...